Time,TemperatureF,DewpointF,PressureIn,WindDirection,WindDirectionDegrees,WindSpeedMPH,WindSpeedGustMPH,Humidity,HourlyPrecipIn,Conditions,Clouds,dailyrainin,SoftwareType,DateUTC
2013-08-30 00:01:00,67.3,46.4,29.88,WSW,256,0.0,0.0,47,0.00,,---,0.00,VWS V14.01,2013-08-30 04:01:00,
2013-08-30 00:06:00,67.3,46.4,29.88,WSW,256,0.0,0.0,47,0.00,,---,0.00,VWS V14.01,2013-08-30 04:06:00,
2013-08-30 00:11:00,67.1,46.2,29.88,WSW,256,0.0,0.0,47,0.00,,---,0.00,VWS V14.01,2013-08-30 04:11:00,
2013-08-30 00:16:00,67.1,46.8,29.88,WSW,256,0.0,0.0,48,0.00,,---,0.00,VWS V14.01,2013-08-30 04:16:00,
2013-08-30 00:21:00,66.9,46.6,29.88,WSW,256,0.0,0.0,48,0.00,,---,0.00,VWS V14.01,2013-08-30 04:21:00,
2013-08-30 00:26:00,67.1,46.8,29.85,WSW,256,0.0,0.0,48,0.00,,---,0.00,VWS V14.01,2013-08-30 04:26:00,
2013-08-30 00:31:00,67.3,47.5,29.85,WSW,256,0.0,0.0,49,0.00,,---,0.00,VWS V14.01,2013-08-30 04:31:00,
2013-08-30 00:36:00,67.1,47.3,29.85,WSW,256,0.0,0.0,49,0.00,,---,0.00,VWS V14.01,2013-08-30 04:36:00,
2013-08-30 00:41:00,67.1,47.3,29.88,WSW,256,0.0,0.0,49,0.00,,---,0.00,VWS V14.01,2013-08-30 04:41:00,
2013-08-30 00:46:00,67.1,47.3,29.88,WSW,256,0.0,0.0,49,0.00,,---,0.00,VWS V14.01,2013-08-30 04:46:00,
2013-08-30 00:51:00,67.1,46.8,29.88,WSW,256,0.0,0.0,48,0.00,,---,0.00,VWS V14.01,2013-08-30 04:51:00,
2013-08-30 00:56:00,66.9,47.2,29.88,WSW,256,0.0,0.0,49,0.00,,---,0.00,VWS V14.01,2013-08-30 04:56:00,
2013-08-30 01:01:00,66.9,47.2,29.88,WSW,256,0.0,0.0,49,0.00,,---,0.00,VWS V14.01,2013-08-30 05:01:00,
2013-08-30 01:06:00,67.1,47.3,29.88,WSW,256,0.0,0.0,49,0.00,,---,0.00,VWS V14.01,2013-08-30 05:06:00,
2013-08-30 01:11:00,66.9,47.2,29.88,WSW,256,0.0,0.0,49,0.00,,---,0.00,VWS V14.01,2013-08-30 05:11:00,
2013-08-30 01:16:00,66.9,47.2,29.88,WSW,256,0.0,0.0,49,0.00,,---,0.00,VWS V14.01,2013-08-30 05:16:00,
2013-08-30 01:21:00,66.9,47.2,29.88,WSW,256,0.0,0.0,49,0.00,,---,0.00,VWS V14.01,2013-08-30 05:21:00,
2013-08-30 01:26:00,66.9,47.2,29.88,WSW,256,0.0,0.0,49,0.00,,---,0.00,VWS V14.01,2013-08-30 05:26:00,
2013-08-30 01:31:00,66.9,47.2,29.88,WSW,256,0.0,0.0,49,0.00,,---,0.00,VWS V14.01,2013-08-30 05:31:00,
2013-08-30 01:36:00,66.9,47.2,29.88,WSW,256,0.0,0.0,49,0.00,,---,0.00,VWS V14.01,2013-08-30 05:36:00,
2013-08-30 01:41:00,66.9,47.2,29.88,WSW,256,0.0,0.0,49,0.00,,---,0.00,VWS V14.01,2013-08-30 05:41:00,
2013-08-30 01:47:00,66.9,47.7,29.88,WSW,256,0.0,0.0,50,0.00,,---,0.00,VWS V14.01,2013-08-30 05:47:00,
2013-08-30 01:52:00,66.9,47.7,29.88,WSW,256,0.0,0.0,50,0.00,,---,0.00,VWS V14.01,2013-08-30 05:52:00,
2013-08-30 01:57:00,66.9,47.7,29.88,WSW,256,0.0,0.0,50,0.00,,---,0.00,VWS V14.01,2013-08-30 05:57:00,
2013-08-30 02:02:00,66.9,48.2,29.88,WSW,256,0.0,0.0,51,0.00,,---,0.00,VWS V14.01,2013-08-30 06:02:00,
2013-08-30 02:07:00,66.7,48.6,29.88,WSW,256,0.0,0.0,52,0.00,,---,0.00,VWS V14.01,2013-08-30 06:07:00,
2013-08-30 02:12:00,66.7,48.6,29.88,WSW,256,0.0,0.0,52,0.00,,---,0.00,VWS V14.01,2013-08-30 06:12:00,
2013-08-30 02:17:00,66.9,48.7,29.88,WSW,256,0.0,0.0,52,0.00,,---,0.00,VWS V14.01,2013-08-30 06:17:00,
2013-08-30 02:22:00,67.1,48.9,29.88,WSW,256,0.0,0.0,52,0.00,,---,0.00,VWS V14.01,2013-08-30 06:22:00,
2013-08-30 02:27:00,67.1,49.4,29.88,WSW,256,0.0,0.0,53,0.00,,---,0.00,VWS V14.01,2013-08-30 06:27:00,
2013-08-30 02:32:00,67.1,49.4,29.88,WSW,256,0.0,0.0,53,0.00,,---,0.00,VWS V14.01,2013-08-30 06:32:00,
2013-08-30 02:37:00,67.3,49.6,29.88,WSW,256,0.0,0.0,53,0.00,,---,0.00,VWS V14.01,2013-08-30 06:37:00,
2013-08-30 02:42:00,67.3,50.1,29.88,WSW,256,0.0,0.0,54,0.00,,---,0.00,VWS V14.01,2013-08-30 06:42:00,
2013-08-30 02:47:00,67.5,50.2,29.88,WSW,256,0.0,0.0,54,0.00,,---,0.00,VWS V14.01,2013-08-30 06:47:00,
2013-08-30 02:52:00,67.6,50.4,29.88,WSW,256,0.0,0.0,54,0.00,,---,0.00,VWS V14.01,2013-08-30 06:52:00,
2013-08-30 02:57:00,67.6,50.9,29.88,WSW,256,0.0,0.0,55,0.00,,---,0.00,VWS V14.01,2013-08-30 06:57:00,
2013-08-30 03:02:00,67.5,50.8,29.88,WSW,256,0.0,0.0,55,0.00,,---,0.00,VWS V14.01,2013-08-30 07:02:00,
2013-08-30 03:07:00,67.6,50.9,29.88,WSW,256,0.0,0.0,55,0.00,,---,0.00,VWS V14.01,2013-08-30 07:07:00,
2013-08-30 03:12:00,67.6,50.9,29.88,WSW,256,0.0,0.0,55,0.00,,---,0.00,VWS V14.01,2013-08-30 07:12:00,
2013-08-30 03:17:00,67.8,51.1,29.88,WSW,256,0.0,0.0,55,0.00,,---,0.00,VWS V14.01,2013-08-30 07:17:00,
2013-08-30 03:22:00,67.6,50.9,29.88,WSW,256,0.0,0.0,55,0.00,,---,0.00,VWS V14.01,2013-08-30 07:22:00,
2013-08-30 03:27:00,67.6,50.9,29.88,WSW,256,0.0,0.0,55,0.00,,---,0.00,VWS V14.01,2013-08-30 07:27:00,
2013-08-30 03:32:00,67.6,50.9,29.88,WSW,256,0.0,0.0,55,0.00,,---,0.00,VWS V14.01,2013-08-30 07:32:00,
2013-08-30 03:37:00,67.6,51.4,29.85,WSW,256,0.0,0.0,56,0.00,,---,0.00,VWS V14.01,2013-08-30 07:37:00,
2013-08-30 03:42:00,67.6,51.4,29.85,WSW,256,0.0,0.0,56,0.00,,---,0.00,VWS V14.01,2013-08-30 07:42:00,
2013-08-30 03:47:00,67.6,51.9,29.85,WSW,256,0.0,0.0,57,0.00,,---,0.00,VWS V14.01,2013-08-30 07:47:00,
2013-08-30 03:52:00,67.6,52.8,29.85,WSW,256,0.0,0.0,59,0.00,,---,0.00,VWS V14.01,2013-08-30 07:52:00,
2013-08-30 03:57:00,67.8,53.9,29.85,WSW,256,0.0,0.0,61,0.00,,---,0.00,VWS V14.01,2013-08-30 07:57:00,
2013-08-30 04:02:00,67.8,53.4,29.85,WSW,256,0.0,0.0,60,0.00,,---,0.00,VWS V14.01,2013-08-30 08:02:00,
2013-08-30 04:07:00,67.8,54.8,29.88,WSW,256,0.0,0.0,63,0.00,,---,0.00,VWS V14.01,2013-08-30 08:07:00,
2013-08-30 04:12:00,67.8,56.5,29.88,WSW,256,0.0,0.0,67,0.00,,---,0.00,VWS V14.01,2013-08-30 08:12:00,
2013-08-30 04:17:00,67.8,56.9,29.88,WSW,256,0.0,0.0,68,0.00,,---,0.00,VWS V14.01,2013-08-30 08:17:00,
2013-08-30 04:22:00,67.8,58.1,29.88,WSW,256,0.0,0.0,71,0.00,,---,0.00,VWS V14.01,2013-08-30 08:22:00,
2013-08-30 04:27:00,67.8,58.1,29.88,WSW,256,0.0,0.0,71,0.00,,---,0.00,VWS V14.01,2013-08-30 08:27:00,
2013-08-30 04:32:00,67.8,58.5,29.88,WSW,256,0.0,0.0,72,0.00,,---,0.00,VWS V14.01,2013-08-30 08:32:00,
2013-08-30 04:37:00,67.8,58.5,29.88,WSW,256,0.0,0.0,72,0.00,,---,0.00,VWS V14.01,2013-08-30 08:37:00,
2013-08-30 04:42:00,68.0,58.3,29.88,WSW,256,0.0,0.0,71,0.00,,---,0.00,VWS V14.01,2013-08-30 08:42:00,
2013-08-30 04:47:00,68.0,58.3,29.88,WSW,256,0.0,0.0,71,0.00,,---,0.00,VWS V14.01,2013-08-30 08:47:00,
2013-08-30 04:52:00,68.2,58.4,29.88,WSW,256,0.0,0.0,71,0.00,,---,0.00,VWS V14.01,2013-08-30 08:52:00,
2013-08-30 04:57:00,68.2,58.4,29.88,WSW,256,0.0,0.0,71,0.00,,---,0.00,VWS V14.01,2013-08-30 08:57:00,
2013-08-30 05:02:00,68.2,58.4,29.88,WSW,256,0.0,0.0,71,0.00,,---,0.00,VWS V14.01,2013-08-30 09:02:00,
2013-08-30 05:07:00,68.4,59.4,29.88,WSW,256,0.0,0.0,73,0.00,,---,0.00,VWS V14.01,2013-08-30 09:07:00,
2013-08-30 05:12:00,68.4,59.4,29.88,WSW,256,0.0,0.0,73,0.00,,---,0.00,VWS V14.01,2013-08-30 09:12:00,
2013-08-30 05:17:00,68.4,59.4,29.88,WSW,256,0.0,0.0,73,0.00,,---,0.00,VWS V14.01,2013-08-30 09:17:00,
2013-08-30 05:22:00,68.4,59.0,29.88,WSW,256,0.0,0.0,72,0.00,,---,0.00,VWS V14.01,2013-08-30 09:22:00,
2013-08-30 05:27:00,68.4,59.0,29.88,WSW,256,0.0,0.0,72,0.00,,---,0.00,VWS V14.01,2013-08-30 09:27:00,
2013-08-30 05:32:00,68.5,59.2,29.88,WSW,256,0.0,0.0,72,0.00,,---,0.00,VWS V14.01,2013-08-30 09:32:00,
2013-08-30 05:37:00,68.5,59.5,29.88,WSW,256,0.0,0.0,73,0.00,,---,0.00,VWS V14.01,2013-08-30 09:37:00,
2013-08-30 05:42:00,68.4,59.4,29.88,WSW,256,0.0,0.0,73,0.00,,---,0.00,VWS V14.01,2013-08-30 09:42:00,
2013-08-30 05:47:00,68.4,59.8,29.88,WSW,256,0.0,0.0,74,0.00,,---,0.00,VWS V14.01,2013-08-30 09:47:00,
2013-08-30 05:52:00,68.4,59.8,29.88,WSW,256,0.0,0.0,74,0.00,,---,0.00,VWS V14.01,2013-08-30 09:52:00,
2013-08-30 05:57:00,68.4,60.1,29.88,WSW,256,0.0,0.0,75,0.00,,---,0.00,VWS V14.01,2013-08-30 09:57:00,
2013-08-30 06:02:00,68.4,60.1,29.88,WSW,256,0.0,0.0,75,0.00,,---,0.00,VWS V14.01,2013-08-30 10:02:00,
2013-08-30 06:07:00,68.5,60.3,29.88,WSW,256,0.0,0.0,75,0.00,,---,0.00,VWS V14.01,2013-08-30 10:07:00,
2013-08-30 06:12:00,68.5,60.3,29.88,WSW,256,0.0,0.0,75,0.00,,---,0.00,VWS V14.01,2013-08-30 10:12:00,
2013-08-30 06:18:00,68.7,60.1,29.88,WSW,256,0.0,0.0,74,0.00,,---,0.00,VWS V14.01,2013-08-30 10:18:00,
2013-08-30 06:23:00,68.7,60.1,29.88,WSW,256,0.0,0.0,74,0.00,,---,0.00,VWS V14.01,2013-08-30 10:23:00,
2013-08-30 06:28:00,68.5,59.9,29.88,WSW,256,0.0,0.0,74,0.00,,---,0.00,VWS V14.01,2013-08-30 10:28:00,
2013-08-30 06:33:00,68.5,59.9,29.88,WSW,256,0.0,0.0,74,0.00,,---,0.00,VWS V14.01,2013-08-30 10:33:00,
2013-08-30 06:38:00,68.5,59.9,29.88,WSW,256,0.0,0.0,74,0.00,,---,0.00,VWS V14.01,2013-08-30 10:38:00,
2013-08-30 06:43:00,68.5,59.5,29.88,WSW,256,0.0,0.0,73,0.00,,---,0.00,VWS V14.01,2013-08-30 10:43:00,
2013-08-30 06:48:00,68.5,59.5,29.88,WSW,256,0.0,0.0,73,0.00,,---,0.00,VWS V14.01,2013-08-30 10:48:00,
2013-08-30 06:53:00,68.5,59.5,29.88,WSW,256,0.0,0.0,73,0.00,,---,0.00,VWS V14.01,2013-08-30 10:53:00,
2013-08-30 06:58:00,68.4,59.4,29.88,WSW,256,0.0,0.0,73,0.00,,---,0.00,VWS V14.01,2013-08-30 10:58:00,
2013-08-30 07:03:00,68.4,59.4,29.88,WSW,256,0.0,0.0,73,0.00,,---,0.00,VWS V14.01,2013-08-30 11:03:00,
2013-08-30 07:08:00,68.4,59.4,29.88,WSW,256,0.0,0.0,73,0.00,,---,0.00,VWS V14.01,2013-08-30 11:08:00,
2013-08-30 07:13:00,68.5,59.5,29.88,WSW,256,0.0,0.0,73,0.00,,---,0.00,VWS V14.01,2013-08-30 11:13:00,
2013-08-30 07:18:00,68.5,59.5,29.88,WSW,256,0.0,0.0,73,0.00,,---,0.00,VWS V14.01,2013-08-30 11:18:00,
2013-08-30 07:23:00,68.5,59.5,29.88,WSW,256,0.0,0.0,73,0.00,,---,0.00,VWS V14.01,2013-08-30 11:23:00,
2013-08-30 07:28:00,68.7,60.1,29.88,WSW,256,0.0,0.0,74,0.00,,---,0.00,VWS V14.01,2013-08-30 11:28:00,
2013-08-30 07:33:00,68.9,60.3,29.88,WSW,256,0.0,0.0,74,0.00,,---,0.00,VWS V14.01,2013-08-30 11:33:00,
2013-08-30 07:38:00,69.1,60.5,29.88,WSW,256,0.0,0.0,74,0.00,,---,0.00,VWS V14.01,2013-08-30 11:38:00,
2013-08-30 07:43:00,69.3,61.4,29.88,WSW,256,0.0,0.0,76,0.00,,---,0.00,VWS V14.01,2013-08-30 11:43:00,
2013-08-30 07:48:00,69.4,61.9,29.88,WSW,256,0.0,0.0,77,0.00,,---,0.00,VWS V14.01,2013-08-30 11:48:00,
2013-08-30 07:53:00,69.6,62.1,29.88,WSW,256,0.0,0.0,77,0.00,,---,0.00,VWS V14.01,2013-08-30 11:53:00,
2013-08-30 07:58:00,69.8,61.9,29.88,WSW,256,0.0,0.0,76,0.00,,---,0.00,VWS V14.01,2013-08-30 11:58:00,
2013-08-30 08:03:00,70.0,62.1,29.88,WSW,256,0.0,0.0,76,0.00,,---,0.00,VWS V14.01,2013-08-30 12:03:00,
2013-08-30 08:08:00,70.2,62.6,29.88,WSW,256,0.0,0.0,77,0.00,,---,0.00,VWS V14.01,2013-08-30 12:08:00,
2013-08-30 08:13:00,70.3,62.8,29.88,WSW,256,0.0,0.0,77,0.00,,---,0.00,VWS V14.01,2013-08-30 12:13:00,
2013-08-30 08:18:00,70.5,63.0,29.88,WSW,256,0.0,0.0,77,0.00,,---,0.00,VWS V14.01,2013-08-30 12:18:00,
2013-08-30 08:23:00,70.7,63.1,29.88,WSW,256,0.0,0.0,77,0.00,,---,0.00,VWS V14.01,2013-08-30 12:23:00,
2013-08-30 08:28:00,71.1,63.5,29.88,WSW,256,0.0,0.0,77,0.00,,---,0.00,VWS V14.01,2013-08-30 12:28:00,
2013-08-30 08:33:00,71.2,64.0,29.88,WSW,256,0.0,0.0,78,0.00,,---,0.00,VWS V14.01,2013-08-30 12:33:00,
2013-08-30 08:38:00,71.6,64.4,29.88,WSW,256,0.0,0.0,78,0.00,,---,0.00,VWS V14.01,2013-08-30 12:38:00,
2013-08-30 08:43:00,72.0,64.7,29.88,WSW,256,0.0,0.0,78,0.00,,---,0.00,VWS V14.01,2013-08-30 12:43:00,
2013-08-30 08:48:00,72.1,64.9,29.88,WSW,256,0.0,0.0,78,0.00,,---,0.00,VWS V14.01,2013-08-30 12:48:00,
2013-08-30 08:53:00,72.7,65.4,29.88,WSW,256,0.0,0.0,78,0.00,,---,0.00,VWS V14.01,2013-08-30 12:53:00,
2013-08-30 08:58:00,73.0,65.0,29.88,WSW,256,0.0,0.0,76,0.00,,---,0.00,VWS V14.01,2013-08-30 12:58:00,
2013-08-30 09:03:00,73.6,62.0,29.88,WSW,256,0.0,0.0,67,0.00,,---,0.00,VWS V14.01,2013-08-30 13:03:00,
2013-08-30 09:08:00,73.9,56.8,29.88,SE,141,0.0,0.0,55,0.00,,---,0.00,VWS V14.01,2013-08-30 13:08:00,
2013-08-30 09:13:00,73.9,52.5,29.88,SE,141,0.0,0.0,47,0.00,,---,0.00,VWS V14.01,2013-08-30 13:13:00,
2013-08-30 09:18:00,74.3,51.0,29.88,SE,141,0.0,0.0,44,0.00,,---,0.00,VWS V14.01,2013-08-30 13:18:00,
2013-08-30 09:23:00,74.5,49.9,29.88,SE,141,0.0,0.0,42,0.00,,---,0.00,VWS V14.01,2013-08-30 13:23:00,
2013-08-30 09:28:00,74.7,49.4,29.88,SE,141,0.0,0.0,41,0.00,,---,0.00,VWS V14.01,2013-08-30 13:28:00,
2013-08-30 09:33:00,75.0,47.7,29.88,East,100,2.2,2.2,38,0.00,,---,0.00,VWS V14.01,2013-08-30 13:33:00,
2013-08-30 09:38:00,75.2,43.3,29.88,West,279,0.0,0.0,32,0.00,,---,0.00,VWS V14.01,2013-08-30 13:38:00,
2013-08-30 09:43:00,75.4,44.3,29.88,West,279,0.0,0.0,33,0.00,,---,0.00,VWS V14.01,2013-08-30 13:43:00,
2013-08-30 09:48:00,75.6,45.2,29.88,West,281,0.0,0.0,34,0.00,,---,0.00,VWS V14.01,2013-08-30 13:48:00,
2013-08-30 09:53:00,75.7,44.6,29.88,WNW,292,0.0,0.0,33,0.00,,---,0.00,VWS V14.01,2013-08-30 13:53:00,
2013-08-30 09:58:00,75.9,46.3,29.88,WNW,292,0.0,0.0,35,0.00,,---,0.00,VWS V14.01,2013-08-30 13:58:00,
2013-08-30 10:03:00,75.9,44.0,29.88,NW,305,3.1,3.1,32,0.00,,---,0.00,VWS V14.01,2013-08-30 14:03:00,
2013-08-30 10:08:00,75.9,44.8,29.88,WNW,300,0.0,0.0,33,0.00,,---,0.00,VWS V14.01,2013-08-30 14:08:00,
2013-08-30 10:13:00,75.9,44.0,29.88,SW,232,3.1,3.6,32,0.00,,---,0.00,VWS V14.01,2013-08-30 14:13:00,
2013-08-30 10:18:00,75.9,44.8,29.88,ESE,118,2.2,3.6,33,0.00,,---,0.00,VWS V14.01,2013-08-30 14:18:00,
2013-08-30 10:24:00,75.9,45.6,29.88,ESE,103,0.0,2.2,34,0.00,,---,0.00,VWS V14.01,2013-08-30 14:24:00,
2013-08-30 10:29:00,76.1,44.9,29.88,East,82,0.0,2.7,33,0.00,,---,0.00,VWS V14.01,2013-08-30 14:29:00,
2013-08-30 10:34:00,76.5,45.2,29.88,East,92,0.0,0.0,33,0.00,,---,0.00,VWS V14.01,2013-08-30 14:34:00,
2013-08-30 10:39:00,76.8,43.9,29.88,ESE,104,0.0,0.0,31,0.00,,---,0.00,VWS V14.01,2013-08-30 14:39:00,
2013-08-30 10:44:00,77.0,44.1,29.88,ENE,76,2.2,2.2,31,0.00,,---,0.00,VWS V14.01,2013-08-30 14:44:00,
2013-08-30 10:49:00,77.0,43.2,29.88,ENE,76,0.0,0.0,30,0.00,,---,0.00,VWS V14.01,2013-08-30 14:49:00,
2013-08-30 10:54:00,76.6,43.8,29.88,SE,124,2.2,3.1,31,0.00,,---,0.00,VWS V14.01,2013-08-30 14:54:00,
2013-08-30 10:59:00,76.5,43.6,29.88,South,186,0.0,0.0,31,0.00,,---,0.00,VWS V14.01,2013-08-30 14:59:00,
2013-08-30 11:04:00,76.5,44.4,29.88,East,96,0.0,2.7,32,0.00,,---,0.00,VWS V14.01,2013-08-30 15:04:00,
2013-08-30 11:09:00,76.1,43.3,29.88,NNE,22,0.0,0.0,31,0.00,,---,0.00,VWS V14.01,2013-08-30 15:09:00,
2013-08-30 11:14:00,76.1,43.3,29.88,SE,145,3.1,3.1,31,0.00,,---,0.00,VWS V14.01,2013-08-30 15:14:00,
2013-08-30 11:19:00,75.7,43.8,29.88,SE,146,0.0,0.0,32,0.00,,---,0.00,VWS V14.01,2013-08-30 15:19:00,
2013-08-30 11:24:00,75.7,44.6,29.88,East,94,2.2,2.2,33,0.00,,---,0.00,VWS V14.01,2013-08-30 15:24:00,
2013-08-30 11:29:00,75.9,44.8,29.88,ESE,108,0.0,0.0,33,0.00,,---,0.00,VWS V14.01,2013-08-30 15:29:00,
2013-08-30 11:34:00,76.1,44.9,29.88,ESE,108,0.0,0.0,33,0.00,,---,0.00,VWS V14.01,2013-08-30 15:34:00,
2013-08-30 11:39:00,75.9,43.1,29.88,ESE,108,0.0,0.0,31,0.00,,---,0.00,VWS V14.01,2013-08-30 15:39:00,
2013-08-30 11:44:00,76.1,44.1,29.88,SSE,158,2.2,2.7,32,0.00,,---,0.00,VWS V14.01,2013-08-30 15:44:00,
2013-08-30 11:49:00,76.3,43.5,29.88,SSE,154,0.0,0.0,31,0.00,,---,0.00,VWS V14.01,2013-08-30 15:49:00,
2013-08-30 11:54:00,76.6,42.9,29.88,ESE,114,0.0,0.0,30,0.00,,---,0.00,VWS V14.01,2013-08-30 15:54:00,
2013-08-30 11:59:00,76.8,41.3,29.88,East,89,0.0,0.0,28,0.00,,---,0.00,VWS V14.01,2013-08-30 15:59:00,
2013-08-30 12:04:00,76.8,39.4,29.88,East,91,0.0,0.0,26,0.00,,---,0.00,VWS V14.01,2013-08-30 16:04:00,
2013-08-30 12:09:00,77.0,39.5,29.88,South,183,0.0,2.2,26,0.00,,---,0.00,VWS V14.01,2013-08-30 16:09:00,
2013-08-30 12:14:00,77.0,40.5,29.88,South,183,0.0,0.0,27,0.00,,---,0.00,VWS V14.01,2013-08-30 16:14:00,
2013-08-30 12:19:00,77.2,39.7,29.88,East,95,0.0,0.0,26,0.00,,---,0.00,VWS V14.01,2013-08-30 16:19:00,
2013-08-30 12:24:00,77.5,37.9,29.85,SSE,156,0.0,0.0,24,0.00,,---,0.00,VWS V14.01,2013-08-30 16:24:00,
2013-08-30 12:29:00,77.9,39.3,29.85,ESE,103,3.1,3.1,25,0.00,,---,0.00,VWS V14.01,2013-08-30 16:29:00,
2013-08-30 12:34:00,78.3,37.5,29.85,SSE,158,0.0,0.0,23,0.00,,---,0.00,VWS V14.01,2013-08-30 16:34:00,
2013-08-30 12:39:00,78.4,35.3,29.85,SE,145,2.7,3.6,21,0.00,,---,0.00,VWS V14.01,2013-08-30 16:39:00,
2013-08-30 12:44:00,78.4,35.3,29.85,SE,145,0.0,0.0,21,0.00,,---,0.00,VWS V14.01,2013-08-30 16:44:00,
2013-08-30 12:49:00,78.3,35.2,29.85,ESE,110,2.7,2.7,21,0.00,,---,0.00,VWS V14.01,2013-08-30 16:49:00,
2013-08-30 12:54:00,78.1,37.3,29.85,East,100,2.2,2.7,23,0.00,,---,0.00,VWS V14.01,2013-08-30 16:54:00,
2013-08-30 12:59:00,78.1,35.0,29.85,SE,130,0.0,2.7,21,0.00,,---,0.00,VWS V14.01,2013-08-30 16:59:00,
2013-08-30 13:04:00,78.3,36.3,29.85,East,91,0.0,0.0,22,0.00,,---,0.00,VWS V14.01,2013-08-30 17:04:00,
2013-08-30 13:09:00,78.4,36.5,29.85,ESE,120,3.1,3.1,22,0.00,,---,0.00,VWS V14.01,2013-08-30 17:09:00,
2013-08-30 13:14:00,78.6,35.5,29.85,SE,146,3.6,4.0,21,0.00,,---,0.00,VWS V14.01,2013-08-30 17:14:00,
2013-08-30 13:19:00,79.0,35.8,29.85,East,100,0.0,0.0,21,0.00,,---,0.00,VWS V14.01,2013-08-30 17:19:00,
2013-08-30 13:24:00,79.3,34.8,29.85,South,179,2.7,4.0,20,0.00,,---,0.00,VWS V14.01,2013-08-30 17:24:00,
2013-08-30 13:29:00,79.3,34.8,29.85,NE,41,2.7,2.7,20,0.00,,---,0.00,VWS V14.01,2013-08-30 17:29:00,
2013-08-30 13:34:00,79.2,34.7,29.85,ENE,69,0.0,2.2,20,0.00,,---,0.00,VWS V14.01,2013-08-30 17:34:00,
2013-08-30 13:39:00,79.0,35.8,29.85,South,183,0.0,2.2,21,0.00,,---,0.00,VWS V14.01,2013-08-30 17:39:00,
2013-08-30 13:44:00,79.5,36.2,29.85,SW,216,0.0,2.2,21,0.00,,---,0.00,VWS V14.01,2013-08-30 17:44:00,
2013-08-30 13:49:00,79.7,35.1,29.85,ESE,111,2.7,4.9,20,0.00,,---,0.00,VWS V14.01,2013-08-30 17:49:00,
2013-08-30 13:54:00,79.9,35.3,29.85,SSE,148,0.0,0.0,20,0.00,,---,0.00,VWS V14.01,2013-08-30 17:54:00,
2013-08-30 13:59:00,79.9,35.3,29.85,South,179,0.0,0.0,20,0.00,,---,0.00,VWS V14.01,2013-08-30 17:59:00,
2013-08-30 14:04:00,79.9,35.3,29.85,East,80,2.7,3.6,20,0.00,,---,0.00,VWS V14.01,2013-08-30 18:04:00,
2013-08-30 14:09:00,80.6,35.9,29.85,East,101,3.6,3.6,20,0.00,,---,0.00,VWS V14.01,2013-08-30 18:09:00,
2013-08-30 14:15:00,80.8,36.0,29.85,South,177,3.6,4.0,20,0.00,,---,0.00,VWS V14.01,2013-08-30 18:15:00,
2013-08-30 14:19:00,80.2,35.6,29.85,ESE,112,3.1,5.4,20,0.00,,---,0.00,VWS V14.01,2013-08-30 18:19:00,
2013-08-30 14:25:00,79.9,35.3,29.83,East,96,0.0,0.0,20,0.00,,---,0.00,VWS V14.01,2013-08-30 18:25:00,
2013-08-30 14:30:00,79.9,35.3,29.83,SE,139,0.0,3.6,20,0.00,,---,0.00,VWS V14.01,2013-08-30 18:30:00,
2013-08-30 14:35:00,80.6,35.9,29.83,South,174,0.0,2.7,20,0.00,,---,0.00,VWS V14.01,2013-08-30 18:35:00,
2013-08-30 14:40:00,81.5,36.6,29.83,ENE,66,0.0,3.6,20,0.00,,---,0.00,VWS V14.01,2013-08-30 18:40:00,
2013-08-30 14:45:00,81.7,35.5,29.83,South,191,2.7,2.7,19,0.00,,---,0.00,VWS V14.01,2013-08-30 18:45:00,
2013-08-30 14:50:00,81.7,35.5,29.83,SE,137,0.0,2.7,19,0.00,,---,0.00,VWS V14.01,2013-08-30 18:50:00,
2013-08-30 14:55:00,81.9,35.6,29.83,SSE,155,0.0,0.0,19,0.00,,---,0.00,VWS V14.01,2013-08-30 18:55:00,
2013-08-30 15:00:00,82.0,35.8,29.83,SE,144,2.2,4.0,19,0.00,,---,0.00,VWS V14.01,2013-08-30 19:00:00,
2013-08-30 15:05:00,81.5,35.3,29.83,South,179,0.0,0.0,19,0.00,,---,0.00,VWS V14.01,2013-08-30 19:05:00,
2013-08-30 15:10:00,81.0,34.9,29.83,South,179,0.0,2.7,19,0.00,,---,0.00,VWS V14.01,2013-08-30 19:10:00,
2013-08-30 15:15:00,80.6,35.9,29.83,SSE,167,2.2,3.6,20,0.00,,---,0.00,VWS V14.01,2013-08-30 19:15:00,
2013-08-30 15:20:00,80.6,35.9,29.83,SSE,154,0.0,0.0,20,0.00,,---,0.00,VWS V14.01,2013-08-30 19:20:00,
2013-08-30 15:25:00,80.8,36.0,29.83,SSE,154,0.0,0.0,20,0.00,,---,0.00,VWS V14.01,2013-08-30 19:25:00,
2013-08-30 15:30:00,80.4,35.7,29.83,ESE,112,0.0,0.0,20,0.00,,---,0.00,VWS V14.01,2013-08-30 19:30:00,
2013-08-30 15:35:00,80.2,35.6,29.83,NE,36,0.0,0.0,20,0.00,,---,0.00,VWS V14.01,2013-08-30 19:35:00,
2013-08-30 15:40:00,79.9,36.5,29.83,ESE,104,2.2,2.7,21,0.00,,---,0.00,VWS V14.01,2013-08-30 19:40:00,
2013-08-30 15:45:00,80.1,36.7,29.83,NE,46,0.0,0.0,21,0.00,,---,0.00,VWS V14.01,2013-08-30 19:45:00,
2013-08-30 15:50:00,80.2,35.6,29.83,NE,46,0.0,0.0,20,0.00,,---,0.00,VWS V14.01,2013-08-30 19:50:00,
2013-08-30 15:55:00,80.1,35.4,29.83,ESE,105,0.0,0.0,20,0.00,,---,0.00,VWS V14.01,2013-08-30 19:55:00,
2013-08-30 16:00:00,80.4,37.0,29.83,ESE,105,0.0,0.0,21,0.00,,---,0.00,VWS V14.01,2013-08-30 20:00:00,
2013-08-30 16:05:00,80.8,36.0,29.83,ESE,105,0.0,0.0,20,0.00,,---,0.00,VWS V14.01,2013-08-30 20:05:00,
2013-08-30 16:10:00,80.8,37.2,29.80,ESE,105,0.0,0.0,21,0.00,,---,0.00,VWS V14.01,2013-08-30 20:10:00,
2013-08-30 16:15:00,80.8,36.0,29.80,ESE,105,0.0,0.0,20,0.00,,---,0.00,VWS V14.01,2013-08-30 20:15:00,
2013-08-30 16:20:00,81.1,36.3,29.80,SE,140,0.0,0.0,20,0.00,,---,0.00,VWS V14.01,2013-08-30 20:20:00,
2013-08-30 16:25:00,81.3,36.5,29.80,North,1,0.0,0.0,20,0.00,,---,0.00,VWS V14.01,2013-08-30 20:25:00,
2013-08-30 16:30:00,81.1,35.0,29.80,ENE,69,0.0,2.2,19,0.00,,---,0.00,VWS V14.01,2013-08-30 20:30:00,
2013-08-30 16:35:00,80.8,36.0,29.80,SE,127,3.1,3.1,20,0.00,,---,0.00,VWS V14.01,2013-08-30 20:35:00,
2013-08-30 16:40:00,80.2,35.6,29.80,SE,128,2.7,2.7,20,0.00,,---,0.00,VWS V14.01,2013-08-30 20:40:00,
2013-08-30 16:45:00,80.1,37.8,29.80,ESE,111,2.2,2.2,22,0.00,,---,0.00,VWS V14.01,2013-08-30 20:45:00,
2013-08-30 16:50:00,80.1,36.7,29.80,ESE,111,0.0,0.0,21,0.00,,---,0.00,VWS V14.01,2013-08-30 20:50:00,
2013-08-30 16:55:00,80.1,36.7,29.80,SE,127,0.0,0.0,21,0.00,,---,0.00,VWS V14.01,2013-08-30 20:55:00,
2013-08-30 17:00:00,80.1,36.7,29.80,NNW,332,0.0,0.0,21,0.00,,---,0.00,VWS V14.01,2013-08-30 21:00:00,
2013-08-30 17:05:00,80.1,36.7,29.80,NNE,17,2.2,2.7,21,0.00,,---,0.00,VWS V14.01,2013-08-30 21:05:00,
2013-08-30 17:10:00,79.9,37.7,29.80,NNE,17,0.0,2.2,22,0.00,,---,0.00,VWS V14.01,2013-08-30 21:10:00,
2013-08-30 17:15:00,79.7,38.7,29.80,NNE,17,0.0,0.0,23,0.00,,---,0.00,VWS V14.01,2013-08-30 21:15:00,
2013-08-30 17:20:00,79.5,38.5,29.80,NNE,17,0.0,0.0,23,0.00,,---,0.00,VWS V14.01,2013-08-30 21:20:00,
2013-08-30 17:25:00,79.2,38.2,29.80,NNE,17,0.0,0.0,23,0.00,,---,0.00,VWS V14.01,2013-08-30 21:25:00,
2013-08-30 17:30:00,79.2,39.3,29.80,NNE,17,2.2,2.7,24,0.00,,---,0.00,VWS V14.01,2013-08-30 21:30:00,
2013-08-30 17:35:00,79.0,39.2,29.80,SSE,156,3.6,3.6,24,0.00,,---,0.00,VWS V14.01,2013-08-30 21:35:00,
2013-08-30 17:40:00,79.0,39.2,29.80,ESE,112,4.0,4.0,24,0.00,,---,0.00,VWS V14.01,2013-08-30 21:40:00,
2013-08-30 17:45:00,78.8,37.9,29.80,ESE,118,0.0,0.0,23,0.00,,---,0.00,VWS V14.01,2013-08-30 21:45:00,
2013-08-30 17:50:00,78.6,37.8,29.80,SSE,149,2.7,2.7,23,0.00,,---,0.00,VWS V14.01,2013-08-30 21:50:00,
2013-08-30 17:55:00,78.8,36.8,29.80,SSE,149,0.0,0.0,22,0.00,,---,0.00,VWS V14.01,2013-08-30 21:55:00,
2013-08-30 18:00:00,78.8,39.0,29.80,SSE,149,0.0,0.0,24,0.00,,---,0.00,VWS V14.01,2013-08-30 22:00:00,
2013-08-30 18:05:00,78.8,41.0,29.80,SSE,160,2.7,2.7,26,0.00,,---,0.00,VWS V14.01,2013-08-30 22:05:00,
2013-08-30 18:10:00,78.6,40.9,29.80,East,97,3.1,3.1,26,0.00,,---,0.00,VWS V14.01,2013-08-30 22:10:00,
2013-08-30 18:15:00,78.6,42.8,29.80,SE,134,0.0,0.0,28,0.00,,---,0.00,VWS V14.01,2013-08-30 22:15:00,
2013-08-30 18:20:00,78.6,41.9,29.80,SE,134,0.0,0.0,27,0.00,,---,0.00,VWS V14.01,2013-08-30 22:20:00,
2013-08-30 18:25:00,78.4,40.8,29.80,SE,136,0.0,0.0,26,0.00,,---,0.00,VWS V14.01,2013-08-30 22:25:00,
2013-08-30 18:30:00,78.3,38.5,29.80,SSE,149,0.0,0.0,24,0.00,,---,0.00,VWS V14.01,2013-08-30 22:30:00,
2013-08-30 18:35:00,78.1,42.4,29.80,SSE,152,2.2,2.7,28,0.00,,---,0.00,VWS V14.01,2013-08-30 22:35:00,
2013-08-30 18:40:00,77.9,39.3,29.77,ESE,117,3.1,4.0,25,0.00,,---,0.00,VWS V14.01,2013-08-30 22:40:00,
2013-08-30 18:45:00,77.9,40.3,29.77,SE,140,2.7,3.6,26,0.00,,---,0.00,VWS V14.01,2013-08-30 22:45:00,
2013-08-30 18:50:00,77.7,42.0,29.77,SE,140,0.0,0.0,28,0.00,,---,0.00,VWS V14.01,2013-08-30 22:50:00,
2013-08-30 18:55:00,77.5,43.7,29.77,SE,140,0.0,0.0,30,0.00,,---,0.00,VWS V14.01,2013-08-30 22:55:00,
2013-08-30 19:00:00,77.2,43.4,29.77,SE,140,0.0,0.0,30,0.00,,---,0.00,VWS V14.01,2013-08-30 23:00:00,
2013-08-30 19:05:00,77.0,44.1,29.77,SE,140,0.0,0.0,31,0.00,,---,0.00,VWS V14.01,2013-08-30 23:05:00,
2013-08-30 19:10:00,76.6,44.6,29.77,SE,140,2.2,2.7,32,0.00,,---,0.00,VWS V14.01,2013-08-30 23:10:00,
2013-08-30 19:15:00,76.5,44.4,29.77,ESE,110,2.2,2.2,32,0.00,,---,0.00,VWS V14.01,2013-08-30 23:15:00,
2013-08-30 19:20:00,76.3,44.3,29.77,ESE,110,0.0,0.0,32,0.00,,---,0.00,VWS V14.01,2013-08-30 23:20:00,
2013-08-30 19:25:00,75.9,44.0,29.77,ESE,110,0.0,0.0,32,0.00,,---,0.00,VWS V14.01,2013-08-30 23:25:00,
2013-08-30 19:30:00,75.7,44.6,29.77,SSE,155,0.0,2.2,33,0.00,,---,0.00,VWS V14.01,2013-08-30 23:30:00,
2013-08-30 19:35:00,75.6,45.2,29.77,SSE,155,0.0,0.0,34,0.00,,---,0.00,VWS V14.01,2013-08-30 23:35:00,
2013-08-30 19:40:00,75.2,44.9,29.77,SSE,155,0.0,0.0,34,0.00,,---,0.00,VWS V14.01,2013-08-30 23:40:00,
2013-08-30 19:45:00,75.0,45.5,29.77,SSE,160,0.0,0.0,35,0.00,,---,0.00,VWS V14.01,2013-08-30 23:45:00,
2013-08-30 19:50:00,74.8,45.4,29.77,SSE,160,0.0,0.0,35,0.00,,---,0.00,VWS V14.01,2013-08-30 23:50:00,
2013-08-30 19:55:00,74.5,46.5,29.77,SSE,160,0.0,0.0,37,0.00,,---,0.00,VWS V14.01,2013-08-30 23:55:00,
2013-08-30 20:00:00,74.3,47.1,29.77,SSE,160,0.0,0.0,38,0.00,,---,0.00,VWS V14.01,2013-08-31 00:00:00,
2013-08-30 20:06:00,73.9,47.5,29.77,SE,137,0.0,2.2,39,0.00,,---,0.00,VWS V14.01,2013-08-31 00:06:00,
2013-08-30 20:11:00,73.9,47.5,29.77,SE,136,0.0,0.0,39,0.00,,---,0.00,VWS V14.01,2013-08-31 00:11:00,
2013-08-30 20:16:00,73.8,47.3,29.77,SE,137,0.0,0.0,39,0.00,,---,0.00,VWS V14.01,2013-08-31 00:16:00,
2013-08-30 20:21:00,73.6,47.8,29.77,SE,137,0.0,0.0,40,0.00,,---,0.00,VWS V14.01,2013-08-31 00:21:00,
2013-08-30 20:26:00,73.4,47.6,29.77,SE,136,0.0,0.0,40,0.00,,---,0.00,VWS V14.01,2013-08-31 00:26:00,
2013-08-30 20:31:00,73.2,48.8,29.77,SE,136,0.0,3.1,42,0.00,,---,0.00,VWS V14.01,2013-08-31 00:31:00,
2013-08-30 20:36:00,72.9,49.1,29.77,SE,131,2.2,2.7,43,0.00,,---,0.00,VWS V14.01,2013-08-31 00:36:00,
2013-08-30 20:41:00,72.7,48.9,29.77,SE,131,0.0,0.0,43,0.00,,---,0.00,VWS V14.01,2013-08-31 00:41:00,
2013-08-30 20:46:00,72.7,49.5,29.77,SE,131,3.1,3.1,44,0.00,,---,0.00,VWS V14.01,2013-08-31 00:46:00,
2013-08-30 20:51:00,72.5,49.4,29.77,SE,131,0.0,0.0,44,0.00,,---,0.00,VWS V14.01,2013-08-31 00:51:00,
2013-08-30 20:56:00,72.5,50.0,29.77,East,95,0.0,0.0,45,0.00,,---,0.00,VWS V14.01,2013-08-31 00:56:00,
2013-08-30 21:01:00,72.5,50.0,29.77,ENE,69,2.7,2.7,45,0.00,,---,0.00,VWS V14.01,2013-08-31 01:01:00,
2013-08-30 21:06:00,72.3,49.8,29.77,ENE,69,0.0,0.0,45,0.00,,---,0.00,VWS V14.01,2013-08-31 01:06:00,
2013-08-30 21:11:00,72.3,50.4,29.77,SSE,150,0.0,0.0,46,0.00,,---,0.00,VWS V14.01,2013-08-31 01:11:00,
2013-08-30 21:16:00,72.3,50.4,29.77,SE,127,0.0,0.0,46,0.00,,---,0.00,VWS V14.01,2013-08-31 01:16:00,
2013-08-30 21:21:00,72.3,50.4,29.77,ESE,104,0.0,0.0,46,0.00,,---,0.00,VWS V14.01,2013-08-31 01:21:00,
2013-08-30 21:26:00,72.1,50.8,29.77,ESE,104,0.0,0.0,47,0.00,,---,0.00,VWS V14.01,2013-08-31 01:26:00,
2013-08-30 21:31:00,72.1,50.8,29.77,ESE,111,2.2,2.2,47,0.00,,---,0.00,VWS V14.01,2013-08-31 01:31:00,
2013-08-30 21:36:00,72.1,51.4,29.77,ESE,123,2.2,2.2,48,0.00,,---,0.00,VWS V14.01,2013-08-31 01:36:00,
2013-08-30 21:41:00,72.1,51.4,29.77,ESE,123,2.2,2.2,48,0.00,,---,0.00,VWS V14.01,2013-08-31 01:41:00,
2013-08-30 21:46:00,72.1,51.9,29.77,East,90,0.0,0.0,49,0.00,,---,0.00,VWS V14.01,2013-08-31 01:46:00,
2013-08-30 21:51:00,72.0,51.8,29.77,ESE,123,0.0,0.0,49,0.00,,---,0.00,VWS V14.01,2013-08-31 01:51:00,
2013-08-30 21:56:00,72.1,51.9,29.77,ESE,123,0.0,0.0,49,0.00,,---,0.00,VWS V14.01,2013-08-31 01:56:00,
2013-08-30 22:01:00,72.1,51.9,29.77,ESE,123,0.0,0.0,49,0.00,,---,0.00,VWS V14.01,2013-08-31 02:01:00,
2013-08-30 22:06:00,72.1,51.9,29.77,ESE,123,0.0,0.0,49,0.00,,---,0.00,VWS V14.01,2013-08-31 02:06:00,
2013-08-30 22:11:00,72.0,51.8,29.77,ESE,123,0.0,0.0,49,0.00,,---,0.00,VWS V14.01,2013-08-31 02:11:00,
2013-08-30 22:16:00,72.0,52.3,29.77,ESE,123,0.0,0.0,50,0.00,,---,0.00,VWS V14.01,2013-08-31 02:16:00,
2013-08-30 22:21:00,72.0,52.3,29.77,ESE,123,0.0,0.0,50,0.00,,---,0.00,VWS V14.01,2013-08-31 02:21:00,
2013-08-30 22:26:00,71.8,52.7,29.80,ESE,123,0.0,0.0,51,0.00,,---,0.00,VWS V14.01,2013-08-31 02:26:00,
2013-08-30 22:31:00,71.8,52.7,29.80,ESE,123,0.0,0.0,51,0.00,,---,0.00,VWS V14.01,2013-08-31 02:31:00,
2013-08-30 22:36:00,71.8,53.2,29.80,ESE,123,0.0,0.0,52,0.00,,---,0.00,VWS V14.01,2013-08-31 02:36:00,
2013-08-30 22:41:00,71.8,53.2,29.80,ESE,123,0.0,0.0,52,0.00,,---,0.00,VWS V14.01,2013-08-31 02:41:00,
2013-08-30 22:46:00,71.8,53.2,29.80,ESE,123,0.0,0.0,52,0.00,,---,0.00,VWS V14.01,2013-08-31 02:46:00,
2013-08-30 22:51:00,71.8,54.3,29.80,ESE,123,0.0,0.0,54,0.00,,---,0.00,VWS V14.01,2013-08-31 02:51:00,
2013-08-30 22:56:00,71.8,55.3,29.77,ESE,123,0.0,0.0,56,0.00,,---,0.00,VWS V14.01,2013-08-31 02:56:00,
2013-08-30 23:01:00,71.8,56.7,29.77,ESE,123,0.0,0.0,59,0.00,,---,0.00,VWS V14.01,2013-08-31 03:01:00,
2013-08-30 23:06:00,71.8,57.6,29.80,ESE,123,0.0,0.0,61,0.00,,---,0.00,VWS V14.01,2013-08-31 03:06:00,
2013-08-30 23:11:00,71.8,58.1,29.80,ESE,123,0.0,0.0,62,0.00,,---,0.00,VWS V14.01,2013-08-31 03:11:00,
2013-08-30 23:16:00,72.0,59.1,29.80,ESE,123,0.0,0.0,64,0.00,,---,0.00,VWS V14.01,2013-08-31 03:16:00,
2013-08-30 23:21:00,72.1,59.7,29.80,ESE,123,0.0,0.0,65,0.00,,---,0.00,VWS V14.01,2013-08-31 03:21:00,
2013-08-30 23:26:00,72.1,60.2,29.80,ESE,123,0.0,0.0,66,0.00,,---,0.00,VWS V14.01,2013-08-31 03:26:00,
2013-08-30 23:31:00,72.3,60.3,29.80,ESE,123,0.0,0.0,66,0.00,,---,0.00,VWS V14.01,2013-08-31 03:31:00,
2013-08-30 23:36:00,72.3,61.2,29.80,ESE,123,0.0,0.0,68,0.00,,---,0.00,VWS V14.01,2013-08-31 03:36:00,
2013-08-30 23:41:00,72.3,62.0,29.80,NE,40,0.0,0.0,70,0.00,,---,0.00,VWS V14.01,2013-08-31 03:41:00,
2013-08-30 23:46:00,72.3,62.8,29.80,SE,136,0.0,0.0,72,0.00,,---,0.00,VWS V14.01,2013-08-31 03:46:00,
2013-08-30 23:51:00,72.3,63.6,29.80,SE,136,0.0,0.0,74,0.00,,---,0.00,VWS V14.01,2013-08-31 03:51:00,
2013-08-30 23:57:00,72.5,63.8,29.80,ESE,112,0.0,2.7,74,0.00,,---,0.00,VWS V14.01,2013-08-31 03:57:00,